Location: Peterborough
(44.3091°N, 78.3197°W)
Time: 00:25:42
(UTC-04:00)

Altair - Pass Details

Date: 03 August 2024
Orbit: 1501 x 1682 km, 47.2° (Epoch: 19 September)

Event Time Altitude Azimuth Distance (km) Brightness Sun altitude
Rises 21:38:26 0° 294° (WNW) 4,698 11.9 -10.6°
Reaches altitude 10° 21:41:38 10° 289° (WNW) 3,695 10.8 -11.1°
Maximum altitude 21:50:21 48° 219° (SW) 1,886 8.0 -12.3°
Enters shadow 21:57:55 14° 151° (SSE) 3,332 8.7 -13.3°
